| time (UTC) | temp C | wind direction | speed KPH | gust KPH | rain 1hr cm | rain 24hr cm | rain mn cm | humidity % | barometer mb |
| 20260507003034 | 14 | 86 | 3.2 | 9.7 | 0.00 | 1.75 | 0.00 | 85 | 1012.6 |
| 20260507002514 | 14 | 77 | 1.6 | 9.7 | 0.00 | 1.75 | 0.00 | 85 | 1012.5 |
| 20260507002016 | 14 | 75 | 3.2 | 11.3 | 0.00 | 1.75 | 0.00 | 85 | 1012.5 |
| 20260507001537 | 14 | 81 | 6.4 | 11.3 | 0.00 | 1.75 | 0.00 | 84 | 1012.6 |
| 20260507001016 | 14 | 88 | 3.2 | 6.4 | 0.00 | 1.75 | 0.00 | 85 | 1012.6 |
| 20260507000517 | 14 | 77 | 1.6 | 4.8 | 0.00 | 1.78 | 0.00 | 85 | 1012.6 |
| 20260507000016 | 14 | 125 | 1.6 | 4.8 | 0.00 | 1.78 | 0.00 | 85 | 1012.6 |
| 20260506235516 | 14 | 123 | 1.6 | 4.8 | 0.00 | 1.80 | 0.00 | 85 | 1012.6 |
| 20260506235016 | 14 | 134 | 1.6 | 6.4 | 0.00 | 1.93 | 0.00 | 84 | 1012.6 |
| 20260506234516 | 14 | 72 | 3.2 | 11.3 | 0.00 | 1.98 | 0.00 | 84 | 1012.7 |
| 20260506234016 | 14 | 75 | 4.8 | 11.3 | 0.00 | 2.21 | 0.00 | 84 | 1012.8 |
| 20260506233536 | 14 | 73 | 4.8 | 11.3 | 0.00 | 2.29 | 0.00 | 84 | 1012.8 |
| 20260506233017 | 14 | 101 | 3.2 | 11.3 | 0.00 | 2.31 | 0.00 | 84 | 1012.8 |
| 20260506232514 | 14 | 78 | 3.2 | 11.3 | 0.00 | 2.31 | 0.00 | 84 | 1012.8 |
| 20260506232016 | 14 | 79 | 6.4 | 11.3 | 0.00 | 2.31 | 0.00 | 84 | 1012.8 |
| 20260506231516 | 14 | 73 | 3.2 | 8.0 | 0.00 | 2.31 | 0.00 | 84 | 1012.8 |
| 20260506231016 | 14 | 74 | 3.2 | 6.4 | 0.00 | 2.31 | 0.00 | 84 | 1012.7 |
| 20260506230537 | 14 | 74 | 3.2 | 9.7 | 0.00 | 2.31 | 0.00 | 84 | 1012.8 |
| 20260506230016 | 14 | 82 | 3.2 | 9.7 | 0.00 | 2.31 | 0.00 | 83 | 1012.7 |
| 20260506225536 | 14 | 83 | 3.2 | 9.7 | 0.00 | 2.31 | 0.00 | 83 | 1012.6 |
| 20260506225016 | 14 | 69 | 4.8 | 8.0 | 0.00 | 2.31 | 0.00 | 83 | 1012.6 |
| 20260506224516 | 14 | 81 | 3.2 | 8.0 | 0.00 | 2.31 | 0.00 | 84 | 1012.5 |
| 20260506224016 | 14 | 97 | 3.2 | 8.0 | 0.00 | 2.31 | 0.00 | 84 | 1012.5 |
| 20260506223516 | 14 | 111 | 0.0 | 4.8 | 0.00 | 2.31 | 0.00 | 83 | 1012.5 |
| 20260506223016 | 14 | 119 | 1.6 | 6.4 | 0.00 | 2.31 | 0.00 | 83 | 1012.7 |
| 20260506222516 | 14 | 122 | 3.2 | 6.4 | 0.00 | 2.31 | 0.00 | 83 | 1012.6 |
| 20260506222037 | 14 | 115 | 1.6 | 11.3 | 0.00 | 2.31 | 0.00 | 83 | 1012.6 |
| 20260506221516 | 14 | 88 | 1.6 | 11.3 | 0.00 | 2.31 | 0.00 | 83 | 1012.5 |
| 20260506221016 | 14 | 100 | 4.8 | 9.7 | 0.00 | 2.31 | 0.00 | 83 | 1012.6 |
| 20260506220517 | 14 | 104 | 1.6 | 9.7 | 0.00 | 2.31 | 0.00 | 82 | 1012.6 |
| 20260506220016 | 14 | 95 | 3.2 | 9.7 | 0.00 | 2.31 | 2.31 | 82 | 1012.6 |
| 20260506215515 | 14 | 106 | 4.8 | 11.3 | 0.00 | 2.31 | 2.31 | 82 | 1012.6 |
| 20260506215014 | 14 | 104 | 4.8 | 12.9 | 0.00 | 2.31 | 2.31 | 82 | 1012.6 |
| 20260506214517 | 14 | 106 | 4.8 | 12.9 | 0.00 | 2.31 | 2.31 | 82 | 1012.6 |
| 20260506214016 | 14 | 105 | 4.8 | 11.3 | 0.00 | 2.31 | 2.31 | 82 | 1012.6 |
| 20260506213517 | 14 | 88 | 4.8 | 11.3 | 0.00 | 2.31 | 2.31 | 81 | 1012.6 |
| 20260506213057 | 14 | 94 | 4.8 | 11.3 | 0.00 | 2.31 | 2.31 | 81 | 1012.6 |
| 20260506212537 | 14 | 91 | 4.8 | 12.9 | 0.00 | 2.31 | 2.31 | 81 | 1012.6 |
| 20260506212017 | 15 | 89 | 4.8 | 12.9 | 0.00 | 2.31 | 2.31 | 81 | 1012.6 |
| 20260506211517 | 15 | 102 | 3.2 | 9.7 | 0.00 | 2.31 | 2.31 | 80 | 1012.6 |
| 20260506211016 | 15 | 113 | 3.2 | 11.3 | 0.00 | 2.31 | 2.31 | 80 | 1012.6 |
| 20260506210516 | 15 | 108 | 3.2 | 11.3 | 0.00 | 2.31 | 2.31 | 80 | 1012.7 |
| 20260506210016 | 15 | 123 | 4.8 | 11.3 | 0.00 | 2.31 | 2.31 | 80 | 1012.6 |
| 20260506205517 | 15 | 114 | 3.2 | 11.3 | 0.00 | 2.31 | 2.31 | 80 | 1012.6 |
| 20260506205017 | 15 | 120 | 3.2 | 9.7 | 0.00 | 2.31 | 2.31 | 79 | 1012.6 |
| 20260506204517 | 15 | 102 | 3.2 | 11.3 | 0.00 | 2.31 | 2.31 | 79 | 1012.6 |
| 20260506204016 | 15 | 89 | 4.8 | 12.9 | 0.00 | 2.31 | 2.31 | 79 | 1012.5 |
| 20260506203516 | 15 | 98 | 4.8 | 12.9 | 0.00 | 2.31 | 2.31 | 79 | 1012.6 |
| 20260506203015 | 16 | 104 | 3.2 | 11.3 | 0.00 | 2.31 | 2.31 | 79 | 1012.5 |
| 20260506202516 | 16 | 101 | 3.2 | 11.3 | 0.00 | 2.31 | 2.31 | 79 | 1012.5 |
| 20260506202016 | 16 | 108 | 3.2 | 9.7 | 0.00 | 2.31 | 2.31 | 79 | 1012.5 |
| 20260506201517 | 16 | 107 | 3.2 | 9.7 | 0.00 | 2.31 | 2.31 | 79 | 1012.5 |
| 20260506201017 | 16 | 113 | 3.2 | 8.0 | 0.00 | 2.31 | 2.31 | 79 | 1012.4 |
| 20260506200537 | 16 | 114 | 3.2 | 8.0 | 0.00 | 2.31 | 2.31 | 79 | 1012.3 |
| 20260506200058 | 16 | 81 | 3.2 | 6.4 | 0.00 | 2.31 | 2.31 | 79 | 1012.3 |
| 20260506195519 | 16 | 76 | 3.2 | 8.0 | 0.00 | 2.31 | 2.31 | 79 | 1012.2 |
| 20260506195016 | 16 | 72 | 4.8 | 8.0 | 0.00 | 2.31 | 2.31 | 78 | 1012.2 |
| 20260506194517 | 16 | 64 | 3.2 | 8.0 | 0.00 | 2.31 | 2.31 | 78 | 1012.1 |
| 20260506194017 | 16 | 100 | 3.2 | 8.0 | 0.00 | 2.31 | 2.31 | 78 | 1012.1 |
| 20260506193516 | 16 | 110 | 1.6 | 8.0 | 0.00 | 2.31 | 2.31 | 78 | 1012.0 |
| 20260506193017 | 16 | 86 | 1.6 | 6.4 | 0.00 | 2.31 | 2.31 | 78 | 1011.9 |
| 20260506192516 | 17 | 127 | 3.2 | 6.4 | 0.00 | 2.31 | 2.31 | 78 | 1011.7 |
| 20260506192016 | 17 | 128 | 1.6 | 6.4 | 0.00 | 2.31 | 2.31 | 78 | 1011.7 |
| 20260506191518 | 17 | 95 | 1.6 | 4.8 | 0.00 | 2.31 | 2.31 | 77 | 1011.7 |
| 20260506191038 | 17 | 86 | 3.2 | 6.4 | 0.00 | 2.31 | 2.31 | 77 | 1011.6 |
| 20260506190517 | 17 | 120 | 3.2 | 6.4 | 0.00 | 2.31 | 2.31 | 77 | 1011.5 |
| 20260506190021 | 17 | 118 | 1.6 | 9.7 | 0.00 | 2.31 | 2.31 | 77 | 1011.5 |
| 20260506185516 | 17 | 125 | 1.6 | 12.9 | 0.00 | 2.31 | 2.31 | 77 | 1011.3 |
| 20260506185016 | 17 | 121 | 6.4 | 12.9 | 0.00 | 2.31 | 2.31 | 77 | 1011.2 |
| 20260506184537 | 17 | 114 | 6.4 | 14.5 | 0.00 | 2.31 | 2.31 | 76 | 1011.2 |
| 20260506184016 | 17 | 126 | 8.0 | 14.5 | 0.00 | 2.31 | 2.31 | 76 | 1011.1 |
| 20260506183556 | 17 | 134 | 4.8 | 9.7 | 0.00 | 2.31 | 2.31 | 76 | 1011.1 |
| 20260506183016 | 17 | 144 | 3.2 | 11.3 | 0.00 | 2.31 | 2.31 | 76 | 1011.1 |
| 20260506182516 | 17 | 136 | 4.8 | 12.9 | 0.00 | 2.31 | 2.31 | 76 | 1010.9 |
| 20260506182016 | 17 | 118 | 4.8 | 12.9 | 0.00 | 2.31 | 2.31 | 75 | 1010.7 |
| 20260506181516 | 17 | 113 | 3.2 | 12.9 | 0.00 | 2.31 | 2.31 | 75 | 1010.7 |
| 20260506181036 | 17 | 104 | 6.4 | 14.5 | 0.00 | 2.31 | 2.31 | 75 | 1010.7 |
| 20260506180537 | 17 | 124 | 4.8 | 14.5 | 0.00 | 2.31 | 2.31 | 74 | 1010.7 |
| 20260506180016 | 17 | 119 | 6.4 | 14.5 | 0.00 | 2.31 | 2.31 | 73 | 1010.7 |
| 20260506175516 | 17 | 141 | 4.8 | 12.9 | 0.00 | 2.31 | 2.31 | 73 | 1010.7 |
| 20260506175016 | 17 | 93 | 4.8 | 14.5 | 0.00 | 2.31 | 2.31 | 72 | 1010.6 |
| 20260506174516 | 18 | 138 | 4.8 | 17.7 | 0.00 | 2.31 | 2.31 | 72 | 1010.5 |
| 20260506174016 | 18 | 96 | 4.8 | 17.7 | 0.00 | 2.31 | 2.31 | 73 | 1010.6 |
| 20260506173516 | 18 | 105 | 3.2 | 8.0 | 0.00 | 2.31 | 2.31 | 73 | 1010.4 |
| 20260506173016 | 17 | 141 | 3.2 | 8.0 | 0.00 | 2.31 | 2.31 | 74 | 1010.4 |
| 20260506172516 | 17 | 91 | 3.2 | 11.3 | 0.00 | 2.31 | 2.31 | 74 | 1010.4 |
| 20260506172016 | 17 | 91 | 3.2 | 11.3 | 0.00 | 2.31 | 2.31 | 74 | 1010.5 |
| 20260506171516 | 17 | 45 | 3.2 | 12.9 | 0.00 | 2.31 | 2.31 | 75 | 1010.4 |
| 20260506171017 | 17 | 114 | 6.4 | 17.7 | 0.00 | 2.31 | 2.31 | 74 | 1010.4 |
| 20260506170516 | 17 | 120 | 8.0 | 17.7 | 0.00 | 2.31 | 2.31 | 74 | 1010.4 |
| 20260506170016 | 18 | 146 | 6.4 | 16.1 | 0.00 | 2.31 | 2.31 | 74 | 1010.4 |
| 20260506165516 | 18 | 152 | 9.7 | 16.1 | 0.00 | 2.31 | 2.31 | 73 | 1010.4 |
| 20260506165036 | 18 | 167 | 6.4 | 16.1 | 0.00 | 2.31 | 2.31 | 72 | 1010.4 |
| 20260506164516 | 18 | 150 | 6.4 | 16.1 | 0.00 | 2.31 | 2.31 | 72 | 1010.4 |
| 20260506164016 | 18 | 193 | 4.8 | 17.7 | 0.00 | 2.31 | 2.31 | 73 | 1010.4 |
| 20260506163517 | 18 | 68 | 4.8 | 17.7 | 0.00 | 2.31 | 2.31 | 72 | 1010.4 |
| 20260506163017 | 18 | 107 | 4.8 | 19.3 | 0.00 | 2.31 | 2.31 | 73 | 1010.5 |
| 20260506162516 | 18 | 144 | 6.4 | 20.9 | 0.00 | 2.31 | 2.31 | 74 | 1010.5 |
| 20260506162016 | 18 | 177 | 6.4 | 20.9 | 0.00 | 2.31 | 2.31 | 75 | 1010.6 |
| 20260506161536 | 18 | 107 | 8.0 | 20.9 | 0.00 | 2.31 | 2.31 | 75 | 1010.5 |
| 20260506161016 | 18 | 150 | 8.0 | 17.7 | 0.00 | 2.31 | 2.31 | 76 | 1010.5 |
| 20260506160516 | 18 | 147 | 8.0 | 20.9 | 0.00 | 2.31 | 2.31 | 75 | 1010.5 |
| 20260506160016 | 18 | 149 | 8.0 | 20.9 | 0.00 | 2.31 | 2.31 | 75 | 1010.4 |
| 20260506155516 | 18 | 182 | 9.7 | 19.3 | 0.00 | 2.31 | 2.31 | 75 | 1010.5 |
| 20260506155016 | 18 | 169 | 8.0 | 19.3 | 0.00 | 2.31 | 2.31 | 74 | 1010.5 |
| 20260506154516 | 18 | 153 | 4.8 | 16.1 | 0.00 | 2.31 | 2.31 | 75 | 1010.5 |
| 20260506154016 | 19 | 159 | 8.0 | 16.1 | 0.00 | 2.31 | 2.31 | 74 | 1010.5 |
| 20260506153516 | 19 | 153 | 6.4 | 14.5 | 0.00 | 2.31 | 2.31 | 75 | 1010.5 |
| 20260506153036 | 19 | 114 | 4.8 | 14.5 | 0.00 | 2.31 | 2.31 | 75 | 1010.4 |
| 20260506152516 | 19 | 108 | 3.2 | 14.5 | 0.00 | 2.31 | 2.31 | 75 | 1010.3 |
| 20260506152016 | 19 | 170 | 6.4 | 14.5 | 0.00 | 2.31 | 2.31 | 75 | 1010.3 |
| 20260506151516 | 19 | 148 | 4.8 | 14.5 | 0.00 | 2.31 | 2.31 | 74 | 1010.3 |
| 20260506151056 | 19 | 153 | 6.4 | 14.5 | 0.00 | 2.31 | 2.31 | 74 | 1010.2 |
| 20260506150516 | 19 | 147 | 4.8 | 12.9 | 0.00 | 2.31 | 2.31 | 75 | 1010.3 |
| 20260506150016 | 19 | 158 | 4.8 | 16.1 | 0.00 | 2.31 | 2.31 | 75 | 1010.2 |
| 20260506145516 | 19 | 131 | 4.8 | 16.1 | 0.00 | 2.31 | 2.31 | 75 | 1010.2 |
| 20260506145016 | 19 | 168 | 6.4 | 11.3 | 0.00 | 2.31 | 2.31 | 74 | 1010.3 |
| 20260506144516 | 19 | 216 | 4.8 | 17.7 | 0.00 | 2.31 | 2.31 | 74 | 1010.2 |
| 20260506144016 | 19 | 153 | 9.7 | 17.7 | 0.00 | 2.31 | 2.31 | 74 | 1010.2 |
| 20260506143516 | 19 | 283 | 6.4 | 17.7 | 0.00 | 2.31 | 2.31 | 73 | 1010.1 |
| 20260506143036 | 20 | 166 | 8.0 | 17.7 | 0.00 | 2.31 | 2.31 | 74 | 1010.1 |
| 20260506142536 | 20 | 243 | 6.4 | 20.9 | 0.00 | 2.31 | 2.31 | 74 | 1010.1 |
| 20260506142016 | 20 | 141 | 8.0 | 20.9 | 0.00 | 2.31 | 2.31 | 74 | 1010.1 |
| 20260506141516 | 20 | 155 | 6.4 | 14.5 | 0.00 | 2.31 | 2.31 | 75 | 1010.1 |
| 20260506141016 | 19 | 96 | 3.2 | 24.1 | 0.00 | 2.31 | 2.31 | 76 | 1010.1 |
| 20260506140516 | 19 | 282 | 11.3 | 24.1 | 0.00 | 2.31 | 2.31 | 75 | 1010.1 |
| 20260506140036 | 19 | 287 | 9.7 | 19.3 | 0.00 | 2.31 | 2.31 | 75 | 1010.1 |
| 20260506135516 | 19 | 257 | 9.7 | 20.9 | 0.00 | 2.31 | 2.31 | 74 | 1010.2 |
| 20260506135016 | 20 | 277 | 11.3 | 20.9 | 0.00 | 2.31 | 2.31 | 75 | 1010.2 |
| 20260506134516 | 20 | 316 | 3.2 | 12.9 | 0.00 | 2.31 | 2.31 | 76 | 1010.3 |
| 20260506134016 | 20 | 155 | 4.8 | 16.1 | 0.00 | 2.31 | 2.31 | 75 | 1010.3 |
| 20260506133516 | 20 | 104 | 12.9 | 16.1 | 0.00 | 2.31 | 2.31 | 76 | 1010.4 |
| 20260506131516 | 20 | 127 | 6.4 | 17.7 | 0.00 | 2.31 | 2.31 | 78 | 1010.4 |
| 20260506131035 | 19 | 69 | 4.8 | 14.5 | 0.00 | 2.31 | 2.31 | 77 | 1010.5 |
| 20260506130516 | 19 | 94 | 6.4 | 16.1 | 0.00 | 2.31 | 2.31 | 76 | 1010.4 |
| 20260506130036 | 20 | 112 | 3.2 | 22.5 | 0.00 | 2.31 | 2.31 | 76 | 1010.5 |
| 20260506125516 | 20 | 179 | 9.7 | 22.5 | 0.00 | 2.31 | 2.31 | 75 | 1010.5 |
| 20260506125036 | 20 | 128 | 6.4 | 16.1 | 0.00 | 2.31 | 2.31 | 76 | 1010.5 |
| 20260506124536 | 20 | 248 | 3.2 | 16.1 | 0.00 | 2.31 | 2.31 | 76 | 1010.5 |
| 20260506124016 | 20 | 131 | 6.4 | 17.7 | 0.00 | 2.31 | 2.31 | 75 | 1010.5 |
| 20260506123516 | 20 | 177 | 6.4 | 17.7 | 0.00 | 2.31 | 2.31 | 75 | 1010.4 |
| 20260506123036 | 20 | 182 | 4.8 | 17.7 | 0.00 | 2.31 | 2.31 | 74 | 1010.5 |
| 20260506122516 | 20 | 234 | 4.8 | 17.7 | 0.00 | 2.31 | 2.31 | 74 | 1010.6 |
| 20260506122016 | 20 | 24 | 4.8 | 16.1 | 0.00 | 2.31 | 2.31 | 73 | 1010.5 |
| 20260506121536 | 20 | 298 | 6.4 | 17.7 | 0.00 | 2.31 | 2.31 | 73 | 1010.5 |
| 20260506121016 | 20 | 57 | 4.8 | 17.7 | 0.00 | 2.31 | 2.31 | 72 | 1010.4 |
| 20260506120515 | 20 | 235 | 8.0 | 17.7 | 0.00 | 2.31 | 2.31 | 71 | 1010.4 |
| 20260506120015 | 20 | 156 | 6.4 | 17.7 | 0.00 | 2.31 | 2.31 | 72 | 1010.4 |
| 20260506115516 | 20 | 307 | 4.8 | 17.7 | 0.00 | 2.31 | 2.31 | 73 | 1010.4 |
| 20260506115015 | 20 | 156 | 4.8 | 14.5 | 0.00 | 2.31 | 2.31 | 75 | 1010.4 |
| 20260506114515 | 20 | 114 | 4.8 | 17.7 | 0.00 | 2.31 | 2.31 | 77 | 1010.3 |
| 20260506114016 | 20 | 182 | 6.4 | 17.7 | 0.00 | 2.31 | 2.31 | 78 | 1010.3 |
| 20260506113516 | 20 | 129 | 6.4 | 16.1 | 0.00 | 2.31 | 2.31 | 79 | 1010.3 |
| 20260506113056 | 19 | 124 | 3.2 | 16.1 | 0.00 | 2.31 | 2.31 | 80 | 1010.3 |
| 20260506112515 | 19 | 246 | 6.4 | 14.5 | 0.00 | 2.31 | 2.31 | 81 | 1010.3 |
| 20260506112015 | 18 | 143 | 4.8 | 14.5 | 0.00 | 2.31 | 2.31 | 82 | 1010.2 |
| 20260506111515 | 18 | 224 | 4.8 | 22.5 | 0.00 | 2.31 | 2.31 | 82 | 1010.2 |
| 20260506111015 | 18 | 275 | 14.5 | 24.1 | 0.00 | 2.31 | 2.31 | 82 | 1010.2 |
| 20260506110516 | 18 | 290 | 14.5 | 24.1 | 0.00 | 2.31 | 2.31 | 83 | 1010.2 |
| 20260506110016 | 18 | 46 | 8.0 | 19.3 | 0.00 | 2.31 | 2.31 | 83 | 1010.2 |
| 20260506105515 | 18 | 296 | 9.7 | 22.5 | 0.00 | 2.31 | 2.31 | 84 | 1010.2 |
| 20260506105036 | 18 | 278 | 12.9 | 27.4 | 0.00 | 2.31 | 2.31 | 85 | 1010.1 |
| 20260506104515 | 18 | 269 | 17.7 | 27.4 | 0.00 | 2.31 | 2.31 | 84 | 1010.2 |
| 20260506104055 | 17 | 275 | 19.3 | 27.4 | 0.00 | 2.31 | 2.31 | 84 | 1010.1 |
| 20260506103515 | 18 | 275 | 19.3 | 30.6 | 0.00 | 2.31 | 2.31 | 84 | 1010.1 |
| 20260506103015 | 18 | 281 | 19.3 | 30.6 | 0.00 | 2.31 | 2.31 | 85 | 1010.0 |
| 20260506102516 | 18 | 288 | 6.4 | 24.1 | 0.00 | 2.31 | 2.31 | 86 | 1009.9 |
| 20260506102016 | 18 | 76 | 8.0 | 20.9 | 0.00 | 2.31 | 2.31 | 86 | 1009.8 |
| 20260506101515 | 18 | 54 | 6.4 | 20.9 | 0.00 | 2.31 | 2.31 | 87 | 1009.8 |
| 20260506101015 | 18 | 97 | 9.7 | 30.6 | 0.00 | 2.31 | 2.31 | 87 | 1009.8 |
| 20260506100516 | 18 | 64 | 9.7 | 30.6 | 0.00 | 2.31 | 2.31 | 88 | 1009.7 |
| 20260506100015 | 18 | 339 | 8.0 | 19.3 | 0.00 | 2.31 | 2.31 | 88 | 1009.7 |
| 20260506095516 | 17 | 345 | 6.4 | 19.3 | 0.00 | 2.31 | 2.31 | 88 | 1009.7 |
| 20260506095035 | 17 | 220 | 6.4 | 20.9 | 0.00 | 2.31 | 2.31 | 88 | 1009.8 |
| 20260506094515 | 17 | 138 | 8.0 | 27.4 | 0.00 | 2.31 | 2.31 | 88 | 1009.7 |
| 20260506094036 | 17 | 172 | 11.3 | 27.4 | 0.00 | 2.31 | 2.31 | 88 | 1009.7 |
| 20260506093516 | 17 | 160 | 9.7 | 27.4 | 0.00 | 2.31 | 2.31 | 88 | 1009.7 |
| 20260506093015 | 17 | 19 | 6.4 | 16.1 | 0.00 | 2.31 | 2.31 | 88 | 1009.6 |
| 20260506092515 | 17 | 196 | 8.0 | 29.0 | 0.00 | 2.31 | 2.31 | 88 | 1009.6 |
| 20260506092015 | 17 | 83 | 8.0 | 29.0 | 0.00 | 2.31 | 2.31 | 88 | 1009.5 |
| 20260506091556 | 17 | 103 | 9.7 | 24.1 | 0.00 | 2.31 | 2.31 | 88 | 1009.4 |
| 20260506091015 | 17 | 83 | 9.7 | 24.1 | 0.00 | 2.31 | 2.31 | 88 | 1009.3 |
| 20260506090515 | 17 | 60 | 6.4 | 20.9 | 0.00 | 2.31 | 2.31 | 88 | 1009.3 |
| 20260506090015 | 17 | 59 | 6.4 | 22.5 | 0.00 | 2.31 | 2.31 | 88 | 1009.3 |
| 20260506085515 | 17 | 55 | 6.4 | 22.5 | 0.15 | 2.31 | 2.31 | 88 | 1009.3 |
| 20260506085015 | 17 | 41 | 6.4 | 16.1 | 0.15 | 2.31 | 2.31 | 88 | 1009.3 |
| 20260506084516 | 17 | 76 | 8.0 | 17.7 | 0.15 | 2.31 | 2.31 | 88 | 1009.2 |
| 20260506084015 | 17 | 234 | 8.0 | 22.5 | 0.15 | 2.31 | 2.31 | 88 | 1009.2 |
| 20260506083515 | 17 | 337 | 8.0 | 22.5 | 0.15 | 2.31 | 2.31 | 88 | 1009.2 |
| 20260506083015 | 17 | 351 | 9.7 | 22.5 | 0.15 | 2.31 | 2.31 | 88 | 1009.1 |
| 20260506082515 | 17 | 11 | 8.0 | 19.3 | 0.15 | 2.31 | 2.31 | 88 | 1009.0 |
| 20260506082015 | 17 | 345 | 6.4 | 30.6 | 0.15 | 2.31 | 2.31 | 87 | 1009.0 |
| 20260506081515 | 17 | 100 | 11.3 | 40.2 | 0.15 | 2.31 | 2.31 | 87 | 1009.0 |
| 20260506081015 | 17 | 127 | 19.3 | 40.2 | 0.15 | 2.31 | 2.31 | 87 | 1008.9 |
| 20260506080536 | 17 | 151 | 16.1 | 32.2 | 0.15 | 2.31 | 2.31 | 87 | 1008.9 |
| 20260506073515 | 17 | 131 | 17.7 | 32.2 | 0.00 | 2.18 | 2.16 | 87 | 1009.2 |
| 20260506073015 | 17 | 121 | 16.1 | 32.2 | 0.00 | 2.18 | 2.16 | 87 | 1009.2 |
| 20260506072515 | 17 | 138 | 12.9 | 32.2 | 0.00 | 2.18 | 2.16 | 88 | 1009.2 |
| 20260506072015 | 17 | 134 | 17.7 | 33.8 | 0.00 | 2.18 | 2.16 | 88 | 1009.2 |
| 20260506071515 | 17 | 144 | 16.1 | 33.8 | 0.00 | 2.18 | 2.16 | 88 | 1009.1 |
| 20260506071015 | 17 | 146 | 12.9 | 25.7 | 0.00 | 2.18 | 2.16 | 88 | 1009.1 |
| 20260506070535 | 17 | 142 | 11.3 | 24.1 | 0.00 | 2.18 | 2.16 | 88 | 1009.1 |
| 20260506062015 | 17 | 156 | 14.5 | 49.9 | 0.00 | 2.24 | 2.16 | 89 | 1009.1 |
| 20260506061515 | 17 | 181 | 19.3 | 49.9 | 0.00 | 2.26 | 2.16 | 89 | 1009.0 |
| 20260506061015 | 17 | 147 | 9.7 | 41.8 | 0.03 | 2.26 | 2.16 | 89 | 1008.8 |
| 20260506060515 | 17 | 174 | 19.3 | 41.8 | 0.03 | 2.29 | 2.16 | 89 | 1008.5 |
| 20260506051015 | 16 | 140 | 14.5 | 40.2 | 0.13 | 2.69 | 2.13 | 91 | 1008.9 |
| 20260506050515 | 16 | 154 | 9.7 | 25.7 | 0.13 | 2.72 | 2.13 | 91 | 1008.8 |
| 20260506045015 | 16 | 167 | 17.7 | 43.5 | 0.10 | 2.84 | 2.11 | 91 | 1008.9 |
| 20260506044535 | 16 | 157 | 19.3 | 40.2 | 0.08 | 2.87 | 2.11 | 91 | 1008.7 |
| 20260506044015 | 16 | 140 | 16.1 | 29.0 | 0.08 | 2.87 | 2.11 | 91 | 1008.7 |
| 20260506043515 | 16 | 169 | 9.7 | 24.1 | 0.05 | 2.90 | 2.06 | 91 | 1008.9 |
| 20260506043035 | 16 | 288 | 6.4 | 17.7 | 0.05 | 2.92 | 2.03 | 91 | 1008.8 |
| 20260506042515 | 16 | 227 | 6.4 | 14.5 | 0.03 | 2.95 | 2.03 | 91 | 1008.7 |
| 20260506042015 | 16 | 101 | 4.8 | 12.9 | 0.43 | 3.02 | 2.03 | 91 | 1008.6 |
| 20260506041515 | 16 | 120 | 6.4 | 12.9 | 0.86 | 3.12 | 2.03 | 91 | 1008.7 |
| 20260506041015 | 16 | 113 | 1.6 | 9.7 | 0.89 | 3.23 | 2.03 | 90 | 1008.8 |
| 20260506040515 | 16 | 93 | 0.0 | 4.8 | 0.89 | 3.25 | 2.03 | 90 | 1008.8 |
| 20260506040015 | 16 | 89 | 3.2 | 4.8 | 0.94 | 3.28 | 2.03 | 90 | 1009.0 |
| 20260506035515 | 16 | 91 | 0.0 | 4.8 | 0.94 | 3.30 | 2.03 | 90 | 1009.1 |
| 20260506035015 | 16 | 0.0 | 0.0 | 0.94 | 3.33 | 2.03 | 90 | 1009.2 | |
| 20260506034515 | 16 | 0.0 | 3.2 | 0.97 | 3.38 | 2.03 | 90 | 1009.3 | |
| 20260506034035 | 16 | 119 | 0.0 | 11.3 | 1.14 | 3.43 | 2.03 | 90 | 1009.3 |
| 20260506033515 | 16 | 105 | 4.8 | 16.1 | 1.17 | 3.51 | 2.03 | 90 | 1009.3 |
| 20260506033015 | 16 | 164 | 8.0 | 25.7 | 1.14 | 3.51 | 2.01 | 90 | 1009.3 |
| 20260506032515 | 17 | 128 | 14.5 | 38.6 | 1.14 | 3.51 | 2.01 | 90 | 1009.2 |
| 20260506032015 | 17 | 189 | 22.5 | 38.6 | 0.74 | 3.10 | 1.60 | 90 | 1009.4 |
| 20260506031515 | 16 | 182 | 17.7 | 41.8 | 0.36 | 2.67 | 1.17 | 91 | 1009.2 |
| 20260506031015 | 16 | 217 | 19.3 | 41.8 | 0.36 | 2.64 | 1.14 | 91 | 1009.2 |
| 20260506030515 | 16 | 186 | 14.5 | 40.2 | 0.36 | 2.64 | 1.14 | 91 | 1009.0 |
| 20260506030015 | 16 | 169 | 8.0 | 20.9 | 0.33 | 2.59 | 1.09 | 91 | 1009.0 |
| 20260506025515 | 16 | 288 | 8.0 | 20.9 | 0.36 | 2.59 | 1.09 | 91 | 1009.0 |
| 20260506025035 | 16 | 174 | 6.4 | 29.0 | 0.46 | 2.64 | 1.09 | 91 | 1008.9 |
| 20260506024514 | 15 | 106 | 12.9 | 29.0 | 0.43 | 2.62 | 1.07 | 91 | 1008.8 |
| 20260506024055 | 15 | 119 | 3.2 | 14.5 | 0.30 | 2.49 | 0.89 | 90 | 1008.7 |
| 20260506023515 | 15 | 88 | 4.8 | 14.5 | 0.30 | 2.49 | 0.86 | 90 | 1008.6 |
| 20260506023015 | 15 | 103 | 6.4 | 14.5 | 0.33 | 2.49 | 0.86 | 90 | 1008.7 |
| 20260506022515 | 15 | 114 | 4.8 | 11.3 | 0.33 | 2.51 | 0.86 | 90 | 1008.8 |
| 20260506022015 | 15 | 126 | 6.4 | 11.3 | 0.33 | 2.57 | 0.86 | 90 | 1009.0 |
| 20260506021535 | 15 | 117 | 4.8 | 11.3 | 0.25 | 2.51 | 0.79 | 90 | 1009.1 |
| 20260506021034 | 15 | 109 | 4.8 | 16.1 | 0.23 | 2.54 | 0.79 | 90 | 1009.2 |
| 20260506020534 | 15 | 81 | 6.4 | 16.1 | 0.23 | 2.59 | 0.79 | 90 | 1009.4 |
| 20260506020055 | 15 | 72 | 4.8 | 16.1 | 0.20 | 2.59 | 0.74 | 90 | 1009.6 |
| 20260506015514 | 15 | 80 | 8.0 | 16.1 | 0.18 | 2.59 | 0.71 | 90 | 1009.5 |
| 20260506015015 | 15 | 77 | 8.0 | 16.1 | 0.08 | 2.51 | 0.61 | 90 | 1009.5 |
| 20260506014554 | 15 | 77 | 4.8 | 12.9 | 0.08 | 2.54 | 0.61 | 90 | 1009.7 |
| 20260506014015 | 16 | 123 | 4.8 | 12.9 | 0.05 | 2.54 | 0.58 | 90 | 1010.0 |
| 20260506013514 | 15 | 77 | 3.2 | 6.4 | 0.03 | 2.54 | 0.56 | 90 | 1009.8 |
| 20260506013034 | 16 | 73 | 3.2 | 6.4 | 0.00 | 2.54 | 0.53 | 90 | 1009.9 |
| 20260506012514 | 16 | 100 | 3.2 | 6.4 | 0.00 | 2.54 | 0.53 | 89 | 1010.1 |
| 20260506012014 | 16 | 106 | 1.6 | 6.4 | 0.00 | 2.54 | 0.53 | 89 | 1010.0 |
| 20260506011535 | 16 | 69 | 1.6 | 6.4 | 0.00 | 2.57 | 0.53 | 89 | 1009.9 |
| 20260506011015 | 16 | 74 | 1.6 | 4.8 | 0.00 | 2.59 | 0.53 | 89 | 1010.1 |
| 20260506010515 | 16 | 85 | 1.6 | 6.4 | 0.03 | 2.59 | 0.53 | 89 | 1010.2 |
| 20260506010014 | 16 | 112 | 3.2 | 6.4 | 0.03 | 2.62 | 0.53 | 89 | 1010.3 |
| 20260506005514 | 16 | 98 | 1.6 | 9.7 | 0.05 | 2.64 | 0.53 | 89 | 1010.2 |
| 20260506005016 | 16 | 107 | 4.8 | 12.9 | 0.15 | 2.64 | 0.53 | 89 | 1010.3 |
| 20260506004536 | 16 | 109 | 6.4 | 12.9 | 0.23 | 2.64 | 0.53 | 89 | 1010.4 |
| 20260506004015 | 16 | 105 | 3.2 | 9.7 | 0.43 | 2.64 | 0.53 | 89 | 1010.6 |
| 20260506003516 | 16 | 84 | 3.2 | 11.3 | 0.51 | 2.64 | 0.53 | 89 | 1010.6 |